Tracking 22993 objects as of 10-May-2021
HD Live streaming from Space Station
objects crossing your sky now

FLOCK 4P 3

Track FLOCK 4P 3 now!
10-day predictions
FLOCK 4P 3 is classified as:


NORAD ID: 44812
Int'l Code: 2019-081J
Perigee: 500.7 km
Apogee: 517.2 km
Inclination: 97.5 °
Period: 94.7 minutes
Semi major axis: 6879 km
RCS: Unknown
Launch date: November 27, 2019
Source: United States (US)
Launch site: SRIHARIKOTA (SRI)
aabbcc
Your satellite tracking list
Your tracking list is empty




NASA's NSSDC Master Catalog

Two Line Element Set (TLE):
1 44812U 19081J   21129.48295946  .00001850  00000-0  85610-4 0  9998
2 44812  97.4545 193.8972 0011960 182.1309 177.9877 15.21344932 80418
Source of the keplerian elements: AFSPC